Flag for Germany Weather past 2 weeks in Greifswald, Mecklenburg-Western Pomerania, Germany

Now
65 °F

Overcast.


Feels Like: 65 °F
Forecast: 56 / 72 °F
Wind: 5 mph from West

Location: Greifswald

Current Time: Aug 28, 2015 at 12:15:24 PM

Latest Report: Aug 28, 2015 at 12:00 PM


Visibility: 17 mi

Pressure: 29.99 "Hg

Humidity: 71%

Dew point: 55 °F

Location of GreifswaldLocation

Historic Weather in Greifswald — Graph

°F

Greifswald temperature yesterday

Maximum temperature yesterday: 71 °F (at 4:00 PM)
Minimum temperature yesterday: 61 °F (at 10:00 PM)
Average temperature yesterday: 66 °F

Past Weeks' High & Low Weather Summary

 TemperatureHumidityPressure
High81 °F (Aug 15, 3:00 PM)99% (Aug 15, 10:00 PM)30.35 "Hg (Aug 15, 10:00 PM)
Low51 °F (Aug 22, 6:00 AM)29% (Aug 21, 2:00 PM)29.71 "Hg (Aug 25, 1:00 AM)
Average67 °F73%30.00 "Hg
* Reported Aug 13 10:00 AM — Aug 28 10:00 AM, Greifswald, Weather by CustomWeather, © 2015

Note: Actual official high and low records may vary slightly from our data, if they occured in-between our weather recording intervals... More about our weather records

Advertising

Greifswald weather history for previous 24 hours

 ConditionsComfort  
Time TempWeatherWind HumidityBarometerVisibility
10:00 AM
Fri, Aug 28
N/APartly sunny.5 mphN/AN/A12 mi
9:00 AM59 °FScattered clouds.5 mph87%29.94 "Hg14 mi
8:00 AM57 °FPartly sunny.3 mph93%29.92 "Hg12 mi
7:00 AM57 °FLow clouds.3 mph94%29.90 "Hg7 mi
6:00 AM57 °FLight rain. Overcast.3 mph94%29.88 "Hg5 mi
5:00 AM57 °FLight rain. Overcast.2 mph94%29.87 "Hg4 mi
4:00 AM58 °FLight rain. Overcast.5 mph92%29.84 "Hg3 mi
3:00 AM60 °FLight rain. Overcast.2 mph97%29.84 "Hg3 mi
2:00 AM60 °FLight rain. Low clouds.1 mph98%29.83 "Hg3 mi
1:00 AM60 °FRain. Low clouds.1 mph96%29.84 "Hg4 mi
10:00 PM
Thu, Aug 27
61 °FLight rain. Low clouds.2 mph97%29.84 "Hg2 mi
9:00 PM62 °FLight rain. Low clouds.3 mph96%29.85 "Hg2 mi
8:00 PM64 °FLight rain. Overcast.1 mph94%29.84 "Hg4 mi
7:00 PM64 °FLight rain. Overcast.2 mph92%29.85 "Hg7 mi
6:00 PM67 °FLight rain. Overcast.1 mph86%29.85 "Hg16 mi
4:00 PM71 °FOvercast.3 mph71%29.86 "Hg22 mi
3:00 PM69 °FOvercast.3 mph72%29.86 "Hg25 mi
2:00 PM69 °FLight rain. Overcast.3 mph76%29.86 "Hg25 mi
1:00 PM68 °FLight rain. Overcast.2 mph74%29.85 "Hg12 mi
12:00 PM70 °FLight rain. Overcast.7 mph66%29.85 "Hg16 mi
Weather by CustomWeather, © 2015

See weather overviewHow to use our weather pages